Location: Central Coast NSW, Australia
(33.2407°S, 151.4316°E)
Time: 01:16:38
(UTC+11:00)

ISS - Pass Details

Date: 02 February 2019
Orbit: 403 x 411 km, 51.6° (Epoch: 16 February)

Event Time Altitude Azimuth Distance (km) Brightness Sun altitude
Exits shadow 04:04:19 22° 188° (S) 966 -1.6 -24.4°
Drops below altitude 10° 04:06:14 10° 158° (SSE) 1,496 -0.1 -24.1°
Sets 04:08:34 0° 144° (SE) 2,362 1.4 -23.8°
